M I D A S
Marine Information and Data Acquisition System
Tripno 746 of the Zeeleeuw from 2004-07-12 06:20:44 to 2004-07-12 15:40:41
Back to CruiseResearch ActivitiesStationsMapUnderway DataData graphs

EquipmentUnitsComments
TimeDGPSUTC
LatitudeDGPSDM.mWGS84
LongitudeDGPSDM.mWGS84
SpeedMeteo Stationm/sRelative wind speed
DirectionMeteo StationdegRelative wind direction
TemperatureMeteo Stationdeg CelciusAir temperature
PressureMeteo StationPaAtmospheric pressure
HumidityMeteo Station%Relative humidity
Missing or incorrect values are displayed as -999
Metereological data collected by the RV Zeeleeuw from 2004-07-12 06:20:44 to 2004-07-12 15:40:41
Time Latitude Longitude Speed Direction Temperature Pressure Humidity
2004-07-12 06:21 51°13.601 2°56.069 9.4 211 14.3 101170 79
2004-07-12 06:22 51°13.626 2°55.985 8.9 216 14.2 101170 78
2004-07-12 06:23 51°13.663 2°55.877 8.2 203 14.4 101180 80
2004-07-12 06:24 51°13.69 2°55.779 6.3 208 14.4 101170 79
2004-07-12 06:25 51°13.701 2°55.747 6.3 260 14.3 101180 79
2004-07-12 06:26 51°13.694 2°55.746 5 294 14.3 101170 79
2004-07-12 06:27 51°13.738 2°55.726 9.3 9 14.3 101150 78
2004-07-12 06:28 51°13.83 2°55.633 10.5 4 14.3 101160 78
2004-07-12 06:29 51°13.942 2°55.547 11.7 355 14.3 101160 78
2004-07-12 06:30 51°14.066 2°55.462 12.1 355 14.3 101140 78
2004-07-12 06:31 51°14.202 2°55.342 14.7 3 14.3 101140 79
2004-07-12 06:32 51°14.331 2°55.124 14.7 9 14.3 101130 77
2004-07-12 06:33 51°14.489 2°54.935 15.9 359 14.4 101150 77
2004-07-12 06:34 51°14.681 2°54.738 16.3 360 14.3 101140 76
2004-07-12 06:35 51°14.865 2°54.552 16 4 14.5 101150 77
2004-07-12 06:36 51°15.041 2°54.371 16.5 8 14.4 101140 77
2004-07-12 06:37 51°15.229 2°54.182 15.5 2 14.4 101130 77
2004-07-12 06:38 51°15.412 2°53.994 16 1 14.5 101140 78
2004-07-12 06:39 51°15.593 2°53.816 16.5 358 14.5 101140 78
2004-07-12 06:40 51°15.805 2°53.626 16.8 353 14.4 101150 78
2004-07-12 06:41 51°16.008 2°53.457 15 1 14.5 101130 79
2004-07-12 06:42 51°16.199 2°53.305 16.4 4 14.5 101150 79
2004-07-12 06:43 51°16.397 2°53.149 15.9 357 14.4 101130 77
2004-07-12 06:44 51°16.593 2°53.003 19.4 353 14.5 101120 77
2004-07-12 06:45 51°16.786 2°52.868 16 350 14.4 101150 77
2004-07-12 06:46 51°16.981 2°52.733 15.1 356 14.4 101130 77
2004-07-12 06:47 51°17.181 2°52.604 16.8 358 14.3 101140 77
2004-07-12 06:48 51°17.386 2°52.501 16.3 355 14.4 101150 77
2004-07-12 06:49 51°17.599 2°52.458 16.9 348 14.4 101130 76
2004-07-12 06:50 51°17.817 2°52.498 15.3 331 14.4 101120 76
2004-07-12 06:51 51°18.033 2°52.605 15.8 326 14.4 101110 76
2004-07-12 06:52 51°18.236 2°52.776 15.4 321 14.4 101130 76
2004-07-12 06:53 51°18.415 2°53.001 15.4 314 14.4 101130 76
2004-07-12 06:54 51°18.577 2°53.254 12.3 316 14.4 101120 76
2004-07-12 06:55 51°18.738 2°53.511 13.4 312 14.4 101120 77
2004-07-12 06:56 51°18.895 2°53.797 14.8 315 14.4 101120 76
2004-07-12 06:57 51°19.038 2°54.067 13.7 307 14.4 101130 76
2004-07-12 06:58 51°19.167 2°54.394 11.5 309 14.3 101150 76
2004-07-12 06:59 51°19.287 2°54.711 12.6 313 14.4 101150 77
2004-07-12 07:01 51°19.41 2°55.029 12.6 306 14.4 101140 76
2004-07-12 07:01 51°19.526 2°55.342 12.2 310 14.4 101140 77
2004-07-12 07:02 51°19.645 2°55.663 12.5 314 14.4 101140 77
2004-07-12 07:03 51°19.759 2°55.982 11.9 301 14.4 101140 76
2004-07-12 07:04 51°19.869 2°56.312 11.3 310 14.4 101140 77
2004-07-12 07:05 51°19.98 2°56.638 12.2 308 14.4 101140 77
2004-07-12 07:06 51°20.091 2°56.963 10.8 307 14.3 101130 76
2004-07-12 07:07 51°20.206 2°57.297 12.9 306 14.4 101130 76
2004-07-12 07:08 51°20.317 2°57.619 12.5 308 14.4 101140 76
2004-07-12 07:09 51°20.429 2°57.947 10.7 311 14.4 101130 77
2004-07-12 07:10 51°20.542 2°58.279 12.6 44 14.5 101140 77
2004-07-12 07:11 51°20.656 2°58.606 11.8 310 14.4 101130 78
2004-07-12 07:12 51°20.764 2°58.938 14.6 313 14.4 101140 78
2004-07-12 07:14 51°20.878 2°59.271 12.8 315 14.4 101120 78
2004-07-12 07:14 51°20.99 2°59.592 12 311 14.3 101140 78
2004-07-12 07:16 51°21.102 2°59.931 11.9 314 14.3 101140 78
2004-07-12 07:16 51°21.213 3°0.257 13.9 44 14.2 101140 78
2004-07-12 07:18 51°21.329 3°0.599 12.8 316 14.2 101140 78
2004-07-12 07:18 51°21.438 3°0.929 12.7 306 14.2 101130 78
2004-07-12 07:19 51°21.548 3°1.265 11.2 42 14.2 101160 78
2004-07-12 07:20 51°21.666 3°1.584 14.6 312 14.2 101140 77
2004-07-12 07:21 51°21.838 3°1.844 14.9 319 14.2 101120 77
2004-07-12 07:22 51°22.02 3°2.067 13.5 318 14.2 101130 77
2004-07-12 07:23 51°22.203 3°2.297 13.8 329 14.2 101120 76
2004-07-12 07:24 51°22.384 3°2.526 13.8 321 14.2 101160 76
2004-07-12 07:25 51°22.565 3°2.758 15.3 326 14.2 101140 76
2004-07-12 07:26 51°22.747 3°2.998 14.9 319 14.3 101130 77
2004-07-12 07:27 51°22.927 3°3.234 14.2 316 14.3 101130 78
2004-07-12 07:28 51°23.106 3°3.473 15.5 228 14.3 101130 78
2004-07-12 07:29 51°23.284 3°3.715 15.9 323 14.3 101130 78
2004-07-12 07:30 51°23.466 3°3.963 15.1 321 14.3 101120 78
2004-07-12 07:31 51°23.646 3°4.203 15.2 325 14.3 101110 79
2004-07-12 07:32 51°23.823 3°4.439 16.6 331 14.2 101110 78
2004-07-12 07:33 51°24.013 3°4.652 16.3 333 14.3 101120 80
2004-07-12 07:35 51°24.23 3°4.862 16 332 14.1 101100 80
2004-07-12 07:36 51°24.426 3°5.048 16.8 337 14 101110 80
2004-07-12 07:37 51°24.625 3°5.227 16.3 338 13.9 101110 80
2004-07-12 07:38 51°24.823 3°5.39 16.2 337 13.9 101120 80
2004-07-12 07:39 51°25.024 3°5.554 15.3 333 13.9 101130 80
2004-07-12 07:40 51°25.228 3°5.721 16.3 331 13.8 101120 80
2004-07-12 07:41 51°25.423 3°5.896 14 326 13.9 101120 80
2004-07-12 07:42 51°25.603 3°6.112 15.3 323 13.9 101130 80
2004-07-12 07:43 51°25.734 3°6.42 12.1 41 13.9 101130 79
2004-07-12 07:44 51°25.856 3°6.744 13.5 313 13.9 101120 79
2004-07-12 07:45 51°25.971 3°7.066 12 39 13.9 101150 78
2004-07-12 07:46 51°26.09 3°7.4 14 313 13.9 101140 79
2004-07-12 07:47 51°26.207 3°7.729 11 317 13.9 101140 78
2004-07-12 07:48 51°26.325 3°8.052 10.6 230 14 101130 78
2004-07-12 07:49 51°26.406 3°8.261 10.8 313 14 101140 78
2004-07-12 07:50 51°26.436 3°8.35 10.2 313 14 101150 77
2004-07-12 07:51 51°26.428 3°8.387 8.8 288 14 101160 77
2004-07-12 07:52 51°26.42 3°8.421 9.8 269 14 101170 77
2004-07-12 07:53 51°26.413 3°8.46 7.7 269 14.2 101160 78
2004-07-12 07:54 51°26.406 3°8.5 7.8 264 14.1 101170 77
2004-07-12 07:55 51°26.413 3°8.559 9.6 295 14.1 101160 76
2004-07-12 07:56 51°26.444 3°8.641 10 309 14.1 101150 77
2004-07-12 07:57 51°26.475 3°8.726 11.2 307 14.1 101150 76
2004-07-12 07:58 51°26.498 3°8.823 10 284 14.2 101150 77
2004-07-12 07:59 51°26.516 3°8.924 8.7 286 14.2 101160 77
2004-07-12 08:00 51°26.531 3°9.014 8.3 287 14.3 101160 78
2004-07-12 08:01 51°26.547 3°9.084 9.6 294 14.3 101160 78
2004-07-12 08:02 51°26.563 3°9.152 9.8 296 14.2 101160 76
2004-07-12 08:03 51°26.581 3°9.215 8.5 301 14.3 101150 77
2004-07-12 08:04 51°26.601 3°9.277 9.6 316 14.2 101160 76
2004-07-12 08:05 51°26.625 3°9.341 9 303 14.2 101160 76
2004-07-12 08:06 51°26.647 3°9.407 8.6 297 14.2 101160 77
2004-07-12 08:07 51°26.67 3°9.47 9.7 300 14.3 101170 77
2004-07-12 08:08 51°26.697 3°9.534 9.6 302 14.2 101160 77
2004-07-12 08:09 51°26.723 3°9.595 9.4 299 14.3 101160 78
2004-07-12 08:10 51°26.751 3°9.658 10.3 303 14.2 101160 77
2004-07-12 08:11 51°26.776 3°9.722 9.3 303 14.2 101170 77
2004-07-12 08:12 51°26.799 3°9.787 9.6 297 14.2 101160 78
2004-07-12 08:13 51°26.825 3°9.853 11.4 301 14.2 101170 78
2004-07-12 08:14 51°26.849 3°9.919 9.4 303 14.2 101170 77
2004-07-12 08:15 51°26.876 3°9.982 8 307 14.3 101170 78
2004-07-12 08:16 51°26.901 3°10.045 10 310 14.3 101170 78
2004-07-12 08:17 51°26.93 3°10.111 9.1 299 14.3 101160 76
2004-07-12 08:18 51°26.959 3°10.176 10.3 302 14.3 101150 76
2004-07-12 08:19 51°26.984 3°10.243 10.6 298 14.3 101160 75
2004-07-12 08:20 51°27.011 3°10.312 8.5 303 14.3 101160 75
2004-07-12 08:21 51°27.036 3°10.376 9.6 293 14.4 101170 75
2004-07-12 08:22 51°27.065 3°10.44 10 299 14.4 101170 75
2004-07-12 08:23 51°27.094 3°10.506 9.2 312 14.4 101170 74
2004-07-12 08:24 51°27.119 3°10.566 9.2 299 14.4 101170 74
2004-07-12 08:25 51°27.146 3°10.628 9.5 302 14.4 101170 74
2004-07-12 08:26 51°27.175 3°10.692 10.7 308 14.4 101170 74
2004-07-12 08:27 51°27.203 3°10.755 8.4 309 14.4 101170 73
2004-07-12 08:28 51°27.231 3°10.819 11.4 302 14.5 101170 73
2004-07-12 08:29 51°27.259 3°10.885 10 312 14.4 101170 71
2004-07-12 08:30 51°27.282 3°10.95 8.6 292 14.6 101180 73
2004-07-12 08:31 51°27.307 3°11.026 10.4 279 14.6 101180 73
2004-07-12 08:32 51°27.321 3°11.12 8.5 258 14.6 101190 72
2004-07-12 08:33 51°27.316 3°11.234 5.7 253 14.5 101190 72
2004-07-12 08:34 51°27.304 3°11.327 7 243 14.5 101200 72
2004-07-12 08:35 51°27.297 3°11.404 7.3 243 14.5 101190 71
2004-07-12 08:36 51°27.266 3°11.488 7.5 155 14.5 101210 72
2004-07-12 08:37 51°27.21 3°11.483 7.5 103 14.5 101200 71
2004-07-12 08:38 51°27.174 3°11.443 8.3 87 14.6 101200 74
2004-07-12 08:39 51°27.151 3°11.393 9.7 61 14.7 101200 76
2004-07-12 08:40 51°27.128 3°11.34 8.4 74 14.5 101190 75
2004-07-12 08:41 51°27.104 3°11.282 8.9 64 14.4 101190 76
2004-07-12 08:42 51°27.081 3°11.226 8.8 76 14.4 101200 77
2004-07-12 08:43 51°27.06 3°11.163 9 61 14.4 101190 77
2004-07-12 08:44 51°27.041 3°11.1 9.9 66 14.4 101190 77
2004-07-12 08:45 51°27.023 3°11.033 9.3 70 14.4 101180 78
2004-07-12 08:46 51°27.003 3°10.964 9.5 67 14.3 101190 77
2004-07-12 08:47 51°26.984 3°10.899 8.5 78 14.3 101200 77
2004-07-12 08:48 51°26.965 3°10.837 9.6 60 14.2 101210 76
2004-07-12 08:49 51°26.945 3°10.776 7.6 55 14.3 101200 77
2004-07-12 08:50 51°26.927 3°10.713 9.7 70 14.3 101200 78
2004-07-12 08:51 51°26.907 3°10.65 8 74 14.3 101200 77
2004-07-12 08:52 51°26.886 3°10.584 7.2 66 14.2 101200 77
2004-07-12 08:53 51°26.867 3°10.519 8.5 72 14.3 101200 78
2004-07-12 08:54 51°26.847 3°10.456 7.9 68 14.2 101210 77
2004-07-12 08:55 51°26.829 3°10.388 8.7 61 14.3 101200 77
2004-07-12 08:56 51°26.809 3°10.313 8.7 75 14.3 101200 79
2004-07-12 08:57 51°26.79 3°10.249 9.5 62 14.3 101210 77
2004-07-12 08:58 51°26.772 3°10.184 10 59 14.3 101210 76
2004-07-12 08:59 51°26.752 3°10.118 10.5 62 14.4 101200 78
2004-07-12 09:00 51°26.732 3°10.055 10.4 66 14.4 101200 79
2004-07-12 09:01 51°26.712 3°9.989 10.9 66 14.2 101200 78
2004-07-12 09:02 51°26.692 3°9.927 9.3 76 14.2 101200 78
2004-07-12 09:03 51°26.671 3°9.863 10.8 77 14.3 101210 79
2004-07-12 09:04 51°26.651 3°9.798 8.1 69 14.1 101200 80
2004-07-12 09:05 51°26.635 3°9.73 10.8 63 14.2 101200 80
2004-07-12 09:06 51°26.615 3°9.665 9.8 77 14 101210 80
2004-07-12 09:07 51°26.595 3°9.602 10 77 13.9 101230 80
2004-07-12 09:08 51°26.574 3°9.537 9.8 77 13.9 101210 80
2004-07-12 09:09 51°26.553 3°9.473 13.3 88 13.9 101210 81
2004-07-12 09:10 51°26.533 3°9.407 9.4 81 13.9 101230 81
2004-07-12 09:11 51°26.513 3°9.344 11.6 95 13.9 101220 81
2004-07-12 09:12 51°26.498 3°9.278 10 83 13.7 101230 79
2004-07-12 09:13 51°26.491 3°9.209 9.6 80 13.8 101220 80
2004-07-12 09:14 51°26.486 3°9.142 11.9 73 13.9 101220 80
2004-07-12 09:15 51°26.482 3°9.084 9.2 80 13.9 101220 80
2004-07-12 09:16 51°26.48 3°9.057 11.4 65 14 101230 80
2004-07-12 09:17 51°26.475 3°9.055 12.3 87 14 101240 80
2004-07-12 09:18 51°26.469 3°9.063 12.5 101 13.9 101240 79
2004-07-12 09:19 51°26.465 3°9.071 10.5 104 13.8 101250 78
2004-07-12 09:20 51°26.462 3°9.079 9.5 117 13.8 101250 80
2004-07-12 09:21 51°26.459 3°9.089 7.9 99 13.8 101250 80
2004-07-12 09:22 51°26.454 3°9.1 10.7 103 13.8 101250 80
2004-07-12 09:23 51°26.446 3°9.1 8.3 111 13.7 101260 80
2004-07-12 09:24 51°26.406 3°9.092 5.9 178 13.8 101270 81
2004-07-12 09:25 51°26.343 3°9.213 3.8 242 13.6 101280 79
2004-07-12 09:26 51°26.221 3°9.476 4.1 293 13.6 101270 80
2004-07-12 09:27 51°26.121 3°9.796 3.8 290 13.6 101280 79
2004-07-12 09:28 51°26.024 3°10.095 3.8 288 13.6 101260 80
2004-07-12 09:29 51°25.917 3°10.414 1.5 250 13.6 101270 80
2004-07-12 09:30 51°25.809 3°10.731 2.6 282 13.7 101270 80
2004-07-12 09:31 51°25.697 3°11.061 4.3 285 13.7 101270 80
2004-07-12 09:32 51°25.585 3°11.407 3.1 298 13.8 101270 80
2004-07-12 09:33 51°25.491 3°11.745 4.2 276 13.8 101270 80
2004-07-12 09:34 51°25.394 3°12.077 5.3 274 13.9 101270 80
2004-07-12 09:35 51°25.306 3°12.412 4.4 270 13.8 101270 79
2004-07-12 09:36 51°25.216 3°12.791 5.8 288 13.9 101260 79
2004-07-12 09:37 51°25.164 3°13.15 5.3 292 13.9 101260 79
2004-07-12 09:38 51°25.145 3°13.506 8.7 297 14 101270 78
2004-07-12 09:39 51°25.184 3°13.634 10.2 266 14 101260 78
2004-07-12 09:40 51°25.196 3°13.696 8 264 13.9 101270 77
2004-07-12 09:41 51°25.216 3°13.771 7.4 277 14 101260 78
2004-07-12 09:42 51°25.245 3°13.844 6.1 284 14 101260 77
2004-07-12 09:43 51°25.276 3°13.914 6.9 272 14 101260 77
2004-07-12 09:44 51°25.303 3°13.984 7.7 274 14.1 101250 77
2004-07-12 09:45 51°25.324 3°14.062 6.5 263 14.1 101260 77
2004-07-12 09:46 51°25.342 3°14.136 5.9 269 14.3 101260 78
2004-07-12 09:47 51°25.36 3°14.216 7.7 266 14.3 101250 76
2004-07-12 09:48 51°25.378 3°14.293 5 258 14.3 101260 75
2004-07-12 09:49 51°25.394 3°14.368 9.3 265 14.5 101260 76
2004-07-12 09:50 51°25.411 3°14.445 9.4 269 14.6 101260 74
2004-07-12 09:51 51°25.425 3°14.519 7.5 262 14.5 101250 72
2004-07-12 09:52 51°25.438 3°14.597 8.5 267 14.7 101250 72
2004-07-12 09:53 51°25.45 3°14.669 7.6 266 14.6 101270 69
2004-07-12 09:54 51°25.461 3°14.742 7.1 272 14.8 101260 72
2004-07-12 09:55 51°25.468 3°14.811 8.7 262 14.8 101260 69
2004-07-12 09:56 51°25.472 3°14.877 5 252 14.8 101260 69
2004-07-12 09:57 51°25.47 3°14.952 5.9 251 14.8 101260 68
2004-07-12 09:58 51°25.459 3°15.027 7.4 243 14.7 101260 67
2004-07-12 09:59 51°25.447 3°15.105 6 238 14.8 101270 67
2004-07-12 10:00 51°25.435 3°15.181 6.3 233 14.9 101260 70
2004-07-12 10:01 51°25.423 3°15.261 6.6 248 14.8 101270 68
2004-07-12 10:02 51°25.415 3°15.342 6.1 252 14.8 101260 68
2004-07-12 10:03 51°25.408 3°15.42 6.4 245 14.8 101270 66
2004-07-12 10:04 51°25.402 3°15.498 5.3 253 14.8 101260 68
2004-07-12 10:05 51°25.395 3°15.576 5.1 251 14.8 101260 67
2004-07-12 10:06 51°25.389 3°15.656 4.4 250 14.8 101260 67
2004-07-12 10:07 51°25.383 3°15.738 6.8 251 14.8 101270 69
2004-07-12 10:08 51°25.376 3°15.818 7.6 243 14.8 101270 68
2004-07-12 10:09 51°25.366 3°15.9 7.3 251 14.8 101260 68
2004-07-12 10:10 51°25.353 3°15.979 6.9 244 14.8 101260 68
2004-07-12 10:11 51°25.344 3°16.057 6 255 14.8 101270 68
2004-07-12 10:12 51°25.333 3°16.139 6.8 235 14.8 101270 69
2004-07-12 10:13 51°25.318 3°16.22 6.6 232 14.8 101270 69
2004-07-12 10:14 51°25.303 3°16.299 6.9 242 14.8 101280 69
2004-07-12 10:15 51°25.285 3°16.381 4.8 251 14.8 101280 69
2004-07-12 10:16 51°25.267 3°16.457 5.7 233 14.8 101280 68
2004-07-12 10:17 51°25.251 3°16.531 5.8 248 14.8 101270 68
2004-07-12 10:18 51°25.237 3°16.605 6.6 242 14.8 101270 68
2004-07-12 10:19 51°25.224 3°16.677 7.5 244 14.7 101280 68
2004-07-12 10:20 51°25.218 3°16.744 4.8 254 14.8 101270 69
2004-07-12 10:21 51°25.212 3°16.809 5.7 233 14.7 101280 69
2004-07-12 10:22 51°25.173 3°16.86 6.4 143 14.8 101290 70
2004-07-12 10:23 51°25.133 3°16.83 9.2 101 14.8 101280 69
2004-07-12 10:24 51°25.114 3°16.756 9 70 14.8 101270 69
2004-07-12 10:25 51°25.106 3°16.669 8.5 69 14.8 101270 68
2004-07-12 10:26 51°25.114 3°16.581 10.8 52 14.7 101270 69
2004-07-12 10:27 51°25.133 3°16.502 9.3 41 14.7 101260 69
2004-07-12 10:28 51°25.146 3°16.42 9.5 55 14.6 101260 68
2004-07-12 10:29 51°25.148 3°16.336 9.3 55 14.6 101270 68
2004-07-12 10:30 51°25.147 3°16.251 8.8 75 14.6 101270 68
2004-07-12 10:31 51°25.148 3°16.17 8.5 57 14.7 101270 69
2004-07-12 10:32 51°25.149 3°16.086 8 74 14.7 101270 68
2004-07-12 10:33 51°25.151 3°16.001 7.2 67 14.7 101280 68
2004-07-12 10:34 51°25.155 3°15.911 7 67 14.9 101280 71
2004-07-12 10:35 51°25.159 3°15.83 8.7 49 14.8 101270 71
2004-07-12 10:36 51°25.162 3°15.76 7.5 58 14.7 101280 72
2004-07-12 10:37 51°25.167 3°15.696 8.1 51 14.7 101280 71
2004-07-12 10:38 51°25.17 3°15.632 8.6 54 14.7 101270 73
2004-07-12 10:39 51°25.17 3°15.573 8.3 59 14.7 101280 72
2004-07-12 10:40 51°25.17 3°15.511 8.6 52 14.6 101280 72
2004-07-12 10:41 51°25.169 3°15.451 8.1 57 14.5 101280 72
2004-07-12 10:42 51°25.166 3°15.389 9.7 59 14.5 101280 73
2004-07-12 10:43 51°25.161 3°15.328 8.9 51 14.6 101280 74
2004-07-12 10:44 51°25.158 3°15.264 10.4 55 14.5 101290 75
2004-07-12 10:45 51°25.156 3°15.199 9.4 61 14.5 101290 75
2004-07-12 10:46 51°25.153 3°15.132 8.3 57 14.5 101290 73
2004-07-12 10:47 51°25.147 3°15.065 9.8 67 14.5 101290 74
2004-07-12 10:48 51°25.14 3°14.997 8.4 63 14.5 101290 72
2004-07-12 10:49 51°25.134 3°14.928 8.3 64 14.5 101290 72
2004-07-12 10:50 51°25.127 3°14.86 9.4 58 14.5 101300 74
2004-07-12 10:51 51°25.119 3°14.795 7.2 65 14.5 101300 72
2004-07-12 10:52 51°25.11 3°14.726 7.2 78 14.6 101290 73
2004-07-12 10:53 51°25.103 3°14.658 8.7 64 14.6 101290 71
2004-07-12 10:54 51°25.094 3°14.592 8.5 68 14.6 101290 70
2004-07-12 10:55 51°25.088 3°14.53 6.9 63 14.6 101300 70
2004-07-12 10:56 51°25.084 3°14.464 8.7 67 14.7 101300 72
2004-07-12 10:57 51°25.079 3°14.397 9.3 65 14.7 101300 72
2004-07-12 10:58 51°25.08 3°14.334 10 56 14.7 101290 71
2004-07-12 10:59 51°25.086 3°14.273 9.4 59 14.6 101290 69
2004-07-12 11:00 51°25.092 3°14.213 8.1 61 14.6 101300 68
2004-07-12 11:01 51°25.098 3°14.175 7.9 50 14.7 101300 70
2004-07-12 11:02 51°25.1 3°14.152 7.2 51 14.7 101310 71
2004-07-12 11:03 51°25.101 3°14.141 7.4 71 14.7 101290 72
2004-07-12 11:04 51°25.098 3°14.137 7.2 77 14.7 101300 73
2004-07-12 11:05 51°25.093 3°14.139 12.1 87 14.7 101300 76
2004-07-12 11:06 51°25.087 3°14.144 10.1 102 14.6 101300 79
2004-07-12 11:07 51°25.081 3°14.15 10.5 92 14.4 101310 80
2004-07-12 11:08 51°25.061 3°14.133 8.3 128 14.2 101310 81
2004-07-12 11:09 51°24.917 3°14.139 7.8 104 14.1 101320 81
2004-07-12 11:10 51°24.701 3°14.143 6.1 112 14 101330 81
2004-07-12 11:11 51°24.482 3°14.186 6.1 120 13.9 101330 82
2004-07-12 11:12 51°24.275 3°14.31 3.6 45 14 101340 83
2004-07-12 11:13 51°24.108 3°14.53 1.7 247 14 101340 83
2004-07-12 11:14 51°24.029 3°14.855 5.6 260 14.1 101350 83
2004-07-12 11:15 51°23.99 3°15.2 5.2 274 14 101340 82
2004-07-12 11:16 51°23.95 3°15.543 5.6 266 14 101340 83
2004-07-12 11:17 51°23.901 3°15.887 4.4 260 14 101340 83
2004-07-12 11:18 51°23.864 3°16.236 5.1 261 14 101340 83
2004-07-12 11:19 51°23.838 3°16.586 7.5 264 14 101340 83
2004-07-12 11:20 51°23.813 3°16.931 5.3 273 13.9 101340 82
2004-07-12 11:21 51°23.783 3°17.275 5.7 289 14 101330 83
2004-07-12 11:22 51°23.761 3°17.622 6.5 259 14 101340 83
2004-07-12 11:23 51°23.739 3°17.971 6.6 270 14 101330 83
2004-07-12 11:24 51°23.716 3°18.317 4.8 259 13.9 101340 82
2004-07-12 11:25 51°23.696 3°18.648 4.5 242 13.9 101330 81
2004-07-12 11:26 51°23.661 3°18.83 5.8 233 14 101330 81
2004-07-12 11:27 51°23.664 3°18.901 6.7 251 14 101340 80
2004-07-12 11:28 51°23.675 3°18.936 8.2 264 14.1 101320 81
2004-07-12 11:29 51°23.696 3°19.003 8 269 14.1 101330 80
2004-07-12 11:30 51°23.713 3°19.093 3.6 253 14 101330 77
2004-07-12 11:31 51°23.72 3°19.186 4.3 242 14.1 101320 76
2004-07-12 11:32 51°23.715 3°19.274 4.4 237 14.2 101320 77
2004-07-12 11:33 51°23.709 3°19.351 4.5 246 14.2 101330 75
2004-07-12 11:34 51°23.703 3°19.424 4.8 236 14.2 101330 75
2004-07-12 11:35 51°23.694 3°19.492 4.8 234 14.2 101330 75
2004-07-12 11:36 51°23.685 3°19.558 4.8 226 14.3 101340 75
2004-07-12 11:37 51°23.675 3°19.622 5.1 215 14.3 101330 75
2004-07-12 11:38 51°23.664 3°19.687 5.1 226 14.4 101330 77
2004-07-12 11:39 51°23.655 3°19.752 6.5 226 14.3 101340 77
2004-07-12 11:40 51°23.648 3°19.818 6.5 219 14.3 101340 76
2004-07-12 11:41 51°23.641 3°19.882 6.4 228 14.3 101350 76
2004-07-12 11:42 51°23.637 3°19.947 5 231 14.3 101340 76
2004-07-12 11:43 51°23.634 3°20.012 5.3 241 14.3 101340 77
2004-07-12 11:44 51°23.634 3°20.076 5.4 244 14.3 101340 76
2004-07-12 11:45 51°23.638 3°20.141 6.3 244 14.3 101340 76
2004-07-12 11:46 51°23.641 3°20.205 6.7 239 14.4 101350 77
2004-07-12 11:47 51°23.643 3°20.275 6.5 234 14.4 101330 76
2004-07-12 11:48 51°23.645 3°20.339 6.4 245 14.4 101340 76
2004-07-12 11:49 51°23.645 3°20.401 6.5 238 14.5 101340 77
2004-07-12 11:50 51°23.644 3°20.464 9.7 235 14.5 101350 77
2004-07-12 11:51 51°23.645 3°20.528 7.9 227 14.4 101350 77
2004-07-12 11:52 51°23.644 3°20.591 7.9 238 14.5 101350 79
2004-07-12 11:53 51°23.641 3°20.656 7.6 229 14.4 101340 77
2004-07-12 11:54 51°23.638 3°20.721 6.7 230 14.4 101350 79
2004-07-12 11:55 51°23.636 3°20.787 7.4 240 14.4 101350 79
2004-07-12 11:56 51°23.635 3°20.855 8.1 243 14.3 101340 78
2004-07-12 11:57 51°23.635 3°20.919 7.2 239 14.2 101350 77
2004-07-12 11:58 51°23.633 3°20.99 8.1 228 14.2 101350 77
2004-07-12 11:59 51°23.631 3°21.061 8.2 235 14.3 101350 78
2004-07-12 12:00 51°23.628 3°21.134 8.9 237 14.3 101350 78
2004-07-12 12:01 51°23.626 3°21.206 7.8 235 14.3 101360 79
2004-07-12 12:02 51°23.625 3°21.276 6.8 230 14.4 101360 80
2004-07-12 12:03 51°23.62 3°21.343 7.7 233 14.3 101350 80
2004-07-12 12:04 51°23.616 3°21.409 7.1 230 14.3 101360 79
2004-07-12 12:05 51°23.604 3°21.472 7.3 207 14.3 101360 79
2004-07-12 12:06 51°23.569 3°21.561 4.8 177 14.1 101360 78
2004-07-12 12:07 51°23.486 3°21.622 6.5 123 14.1 101370 77
2004-07-12 12:08 51°23.422 3°21.603 8.7 110 14.2 101370 78
2004-07-12 12:09 51°23.377 3°21.563 9.9 84 14.2 101360 78
2004-07-12 12:10 51°23.342 3°21.476 10.2 52 14.1 101350 78
2004-07-12 12:11 51°23.322 3°21.369 9.5 35 14.1 101360 77
2004-07-12 12:12 51°23.306 3°21.277 9.9 34 14.2 101350 78
2004-07-12 12:13 51°23.298 3°21.189 9.4 20 14.1 101360 77
2004-07-12 12:14 51°23.299 3°21.11 9.2 21 14.1 101360 76
2004-07-12 12:15 51°23.301 3°21.025 9.5 14 14.2 101360 76
2004-07-12 12:16 51°23.305 3°20.945 8.4 359 14.2 101360 76
2004-07-12 12:17 51°23.316 3°20.865 10 351 14.3 101350 77
2004-07-12 12:18 51°23.328 3°20.791 9.1 6 14.3 101360 77
2004-07-12 12:19 51°23.342 3°20.715 10 13 14.3 101360 76
2004-07-12 12:20 51°23.353 3°20.63 8.6 12 14.2 101370 75
2004-07-12 12:21 51°23.366 3°20.543 10.7 1 14.3 101370 76
2004-07-12 12:22 51°23.379 3°20.458 10.5 13 14.3 101370 77
2004-07-12 12:23 51°23.392 3°20.367 8.7 10 14.2 101370 76
2004-07-12 12:24 51°23.402 3°20.279 10.2 8 14.3 101370 77
2004-07-12 12:25 51°23.41 3°20.196 8.2 19 14.2 101370 76
2004-07-12 12:26 51°23.416 3°20.113 8.9 6 14.2 101370 78
2004-07-12 12:27 51°23.423 3°20.036 9.5 12 14.2 101360 78
2004-07-12 12:28 51°23.426 3°19.965 9.2 16 14.2 101370 78
2004-07-12 12:29 51°23.43 3°19.897 8.2 17 14.2 101370 77
2004-07-12 12:30 51°23.438 3°19.825 9.3 2 14.2 101380 78
2004-07-12 12:31 51°23.45 3°19.751 8.6 5 14.2 101370 77
2004-07-12 12:32 51°23.461 3°19.677 7.6 11 14.2 101370 78
2004-07-12 12:33 51°23.471 3°19.602 7.8 11 14.2 101370 78
2004-07-12 12:34 51°23.483 3°19.526 9.9 12 14.2 101370 78
2004-07-12 12:35 51°23.496 3°19.448 8.7 8 14.2 101380 77
2004-07-12 12:36 51°23.508 3°19.371 8.9 2 14.2 101380 77
2004-07-12 12:37 51°23.52 3°19.292 8.9 14 14.1 101380 76
2004-07-12 12:38 51°23.531 3°19.209 7.7 13 14.1 101390 77
2004-07-12 12:39 51°23.541 3°19.128 9.3 17 14.2 101380 77
2004-07-12 12:40 51°23.554 3°19.047 9 12 14.3 101380 77
2004-07-12 12:41 51°23.567 3°18.965 10.1 14 14.3 101380 77
2004-07-12 12:42 51°23.58 3°18.883 9.4 6 14.3 101380 77
2004-07-12 12:43 51°23.598 3°18.807 9.4 354 14.2 101380 78
2004-07-12 12:44 51°23.62 3°18.734 10.3 357 14.3 101380 79
2004-07-12 12:45 51°23.643 3°18.661 7.6 2 14.2 101380 78
2004-07-12 12:46 51°23.677 3°18.586 10.6 327 14.2 101390 79
2004-07-12 12:47 51°23.741 3°18.596 6.7 263 14.2 101370 79
2004-07-12 12:48 51°23.736 3°18.698 4.5 194 14.3 101390 80
2004-07-12 12:49 51°23.689 3°18.732 5.7 154 14.3 101390 80
2004-07-12 12:50 51°23.648 3°18.719 8 132 14.3 101390 80
2004-07-12 12:51 51°23.614 3°18.686 7.8 121 14.2 101380 79
2004-07-12 12:52 51°23.59 3°18.644 8.1 104 14.2 101380 81
2004-07-12 12:53 51°23.572 3°18.599 9.4 87 14.2 101380 81
2004-07-12 12:54 51°23.556 3°18.556 11.1 83 14.2 101380 82
2004-07-12 12:55 51°23.541 3°18.508 9.1 68 14.1 101380 81
2004-07-12 12:56 51°23.529 3°18.307 13.7 32 14 101390 81
2004-07-12 12:57 51°23.499 3°17.942 15.4 31 14 101370 81
2004-07-12 12:58 51°23.438 3°17.564 13.4 32 14 101360 82
2004-07-12 12:59 51°23.379 3°17.19 14 32 14 101360 82
2004-07-12 13:00 51°23.32 3°16.804 16.1 26 13.9 101360 82
2004-07-12 13:01 51°23.267 3°16.421 14.8 28 13.8 101370 82
2004-07-12 13:02 51°23.23 3°16.034 15 31 13.9 101370 83
2004-07-12 13:03 51°23.19 3°15.648 14.5 34 13.8 101370 82
2004-07-12 13:04 51°23.13 3°15.267 14.2 28 13.8 101380 82
2004-07-12 13:05 51°23.074 3°14.882 13.9 30 13.8 101380 83
2004-07-12 13:06 51°23.016 3°14.499 14 25 13.7 101380 83
2004-07-12 13:07 51°22.957 3°14.118 14.7 22 13.7 101370 83
2004-07-12 13:08 51°22.898 3°13.741 14.2 32 13.7 101380 84
2004-07-12 13:09 51°22.833 3°13.328 14.7 26 13.6 101380 83
2004-07-12 13:10 51°22.775 3°12.951 13.4 26 13.6 101390 83
2004-07-12 13:11 51°22.715 3°12.57 13 24 13.5 101400 83
2004-07-12 13:12 51°22.661 3°12.161 12.3 24 13.6 101400 84
2004-07-12 13:13 51°22.608 3°11.749 13.4 23 13.6 101390 84
2004-07-12 13:14 51°22.553 3°11.363 12.7 22 13.5 101400 83
2004-07-12 13:15 51°22.493 3°10.977 10.9 15 13.5 101420 84
2004-07-12 13:16 51°22.43 3°10.593 11.6 25 13.5 101390 84
2004-07-12 13:17 51°22.372 3°10.214 11.4 23 13.5 101400 85
2004-07-12 13:18 51°22.312 3°9.837 11.1 18 13.5 101400 85
2004-07-12 13:19 51°22.25 3°9.462 10.6 17 13.5 101400 85
2004-07-12 13:20 51°22.187 3°9.086 11 16 13.5 101400 85
2004-07-12 13:21 51°22.126 3°8.712 9.7 12 13.5 101410 85
2004-07-12 13:22 51°22.067 3°8.338 11.1 18 13.4 101400 85
2004-07-12 13:23 51°21.999 3°7.968 10.8 16 13.5 101400 85
2004-07-12 13:24 51°21.922 3°7.602 11.1 14 13.6 101410 86
2004-07-12 13:25 51°21.837 3°7.241 10.9 24 13.6 101420 85
2004-07-12 13:26 51°21.742 3°6.889 10.1 20 13.6 101410 85
2004-07-12 13:27 51°21.652 3°6.555 8 14 13.6 101420 85
2004-07-12 13:28 51°21.635 3°6.374 5.5 1 13.6 101430 85
2004-07-12 13:29 51°21.629 3°6.319 4.8 17 13.6 101430 85
2004-07-12 13:30 51°21.617 3°6.259 4.6 17 13.6 101420 85
2004-07-12 13:31 51°21.594 3°6.166 5.3 24 13.6 101430 85
2004-07-12 13:32 51°21.569 3°6.065 6.1 28 13.6 101430 85
2004-07-12 13:33 51°21.548 3°5.96 5.6 15 13.6 101420 84
2004-07-12 13:34 51°21.531 3°5.866 4.9 20 13.6 101430 84
2004-07-12 13:35 51°21.516 3°5.782 5.3 18 13.6 101430 84
2004-07-12 13:36 51°21.5 3°5.702 4.5 21 13.6 101430 83
2004-07-12 13:37 51°21.483 3°5.627 5.5 9 13.7 101430 84
2004-07-12 13:38 51°21.466 3°5.553 4.9 21 13.7 101430 84
2004-07-12 13:39 51°21.451 3°5.48 5.4 9 13.7 101430 84
2004-07-12 13:40 51°21.435 3°5.408 4.2 23 13.7 101440 84
2004-07-12 13:41 51°21.42 3°5.334 5.4 22 13.7 101430 84
2004-07-12 13:42 51°21.405 3°5.262 4.8 12 13.7 101430 84
2004-07-12 13:43 51°21.388 3°5.187 5.3 20 13.7 101440 84
2004-07-12 13:44 51°21.372 3°5.109 4.7 18 13.8 101440 84
2004-07-12 13:45 51°21.356 3°5.028 5.8 11 13.8 101440 85
2004-07-12 13:46 51°21.347 3°4.947 5.7 352 13.9 101440 84
2004-07-12 13:47 51°21.342 3°4.868 4.7 347 13.9 101440 84
2004-07-12 13:48 51°21.337 3°4.79 5.1 349 13.9 101430 84
2004-07-12 13:49 51°21.331 3°4.712 5   13.9 101430 84
2004-07-12 13:50 51°21.324 3°4.633 5.3 359 13.9 101440 84
2004-07-12 13:51 51°21.314 3°4.555 4.7 6 13.9 101420 83
2004-07-12 13:52 51°21.303 3°4.479 4.8 4 13.9 101440 84
2004-07-12 13:53 51°21.291 3°4.404 5 1 14 101440 84
2004-07-12 13:54 51°21.278 3°4.329 6.1 10 14 101430 84
2004-07-12 13:55 51°21.266 3°4.253 5 8 13.9 101450 83
2004-07-12 13:56 51°21.252 3°4.176 5.4 11 14 101440 84
2004-07-12 13:57 51°21.237 3°4.101 4.5   14 101440 83
2004-07-12 13:58 51°21.221 3°4.027 5.7 9 14 101450 83
2004-07-12 13:59 51°21.203 3°3.954 4.2 14 14 101440 83
2004-07-12 14:00 51°21.184 3°3.88 4 31 14 101450 83
2004-07-12 14:01 51°21.162 3°3.803 5.5 31 14.1 101440 83
2004-07-12 14:02 51°21.137 3°3.729 5.5 24 14 101440 83
2004-07-12 14:03 51°21.114 3°3.654 4.8 20 14.1 101450 83
2004-07-12 14:04 51°21.094 3°3.579 4.1 12 14.1 101450 83
2004-07-12 14:05 51°21.077 3°3.501 3.7 12 14.1 101450 83
2004-07-12 14:06 51°21.063 3°3.402 6 7 14.1 101450 83
2004-07-12 14:07 51°21.066 3°3.239 6.7 354 14.1 101440 83
2004-07-12 14:08 51°21.099 3°3.066 6.6 355 14.1 101440 82
2004-07-12 14:09 51°21.139 3°2.955 5.5 331 14.2 101450 82
2004-07-12 14:10 51°21.167 3°2.894 5.6 316 14.3 101450 82
2004-07-12 14:11 51°21.187 3°2.856 5.2 43 14.3 101440 81
2004-07-12 14:12 51°21.212 3°2.861 3.7 244 14.4 101440 80
2004-07-12 14:13 51°21.188 3°2.913 3.9 137 14.5 101450 81
2004-07-12 14:14 51°21.119 3°2.881 5.4 96 14.6 101450 79
2004-07-12 14:15 51°21.062 3°2.811 7.4 88 14.6 101450 78
2004-07-12 14:16 51°21.012 3°2.73 7.1 80 14.6 101440 77
2004-07-12 14:17 51°20.972 3°2.643 7.5 61 14.7 101440 75
2004-07-12 14:18 51°20.939 3°2.558 7.5 65 14.8 101440 75
2004-07-12 14:19 51°20.908 3°2.478 8.4 58 14.8 101440 74
2004-07-12 14:20 51°20.876 3°2.4 7 62 14.8 101430 73
2004-07-12 14:21 51°20.844 3°2.324 7.8 65 14.9 101440 75
2004-07-12 14:22 51°20.811 3°2.249 6.4 70 14.9 101430 74
2004-07-12 14:23 51°20.78 3°2.178 8 63 15 101440 74
2004-07-12 14:24 51°20.749 3°2.109 6.9 64 14.9 101440 72
2004-07-12 14:25 51°20.72 3°2.042 8.3 60 14.9 101430 72
2004-07-12 14:26 51°20.689 3°1.974 7.2 60 14.9 101440 71
2004-07-12 14:27 51°20.661 3°1.911 7.5 58 14.9 101440 71
2004-07-12 14:28 51°20.634 3°1.845 8 60 15 101440 73
2004-07-12 14:29 51°20.61 3°1.786 7.3 51 14.9 101440 71
2004-07-12 14:30 51°20.587 3°1.722 7.1 48 14.9 101430 70
2004-07-12 14:31 51°20.566 3°1.658 5.2 42 14.9 101440 71
2004-07-12 14:32 51°20.544 3°1.59 7.1 42 15.1 101440 73
2004-07-12 14:34 51°20.522 3°1.516 7.3 37 14.9 101440 70
2004-07-12 14:35 51°20.501 3°1.448 6.5 33 14.9 101440 71
2004-07-12 14:36 51°20.482 3°1.378 7.6 34 15 101440 72
2004-07-12 14:37 51°20.462 3°1.306 8.5 40 15 101440 73
2004-07-12 14:38 51°20.442 3°1.235 8.7 41 15 101440 72
2004-07-12 14:39 51°20.421 3°1.165 7.8 39 14.9 101440 73
2004-07-12 14:40 51°20.401 3°1.097 8 33 14.9 101430 72
2004-07-12 14:41 51°20.379 3°1.033 8 42 14.9 101430 72
2004-07-12 14:42 51°20.357 3°0.973 7.6 43 14.9 101440 72
2004-07-12 14:43 51°20.336 3°0.914 7.4 41 15 101440 74
2004-07-12 14:44 51°20.315 3°0.858 8.3 39 14.9 101440 72
2004-07-12 14:45 51°20.294 3°0.801 8.1 26 14.9 101450 73
2004-07-12 14:46 51°20.274 3°0.745 7.5 35 14.9 101450 72
2004-07-12 14:47 51°20.256 3°0.672 8.3 20 15 101450 73
2004-07-12 14:48 51°20.243 3°0.582 8.8 23 15 101440 73
2004-07-12 14:49 51°20.224 3°0.482 7.9 31 15.1 101440 74
2004-07-12 14:50 51°20.216 3°0.347 10.1 5 15.1 101440 73
2004-07-12 14:51 51°20.256 3°0.213 9.5 334 15 101440 72
2004-07-12 14:52 51°20.331 3°0.165 8.3 287 15.1 101450 72
2004-07-12 14:53 51°20.392 3°0.226 3.8 254 15.1 101460 72
2004-07-12 14:54 51°20.405 3°0.317 3.8 208 15.1 101470 73
2004-07-12 14:55 51°20.388 3°0.373 4.7 200 15 101470 72
2004-07-12 14:56 51°20.365 3°0.408 5.8 171 15 101460 73
2004-07-12 14:57 51°20.338 3°0.429 6.6 159 15 101460 72
2004-07-12 14:58 51°20.308 3°0.441 6.4 154 15.1 101460 74
2004-07-12 14:59 51°20.274 3°0.441 6.5 149 15 101460 72
2004-07-12 15:00 51°20.236 3°0.431 6.3 133 15 101460 72
2004-07-12 15:01 51°20.201 3°0.413 6.9 128 15.1 101450 73
2004-07-12 15:02 51°20.167 3°0.388 6.1 116 15.2 101450 73
2004-07-12 15:03 51°20.135 3°0.358 7.9 104 15.2 101450 73
2004-07-12 15:04 51°20.097 3°0.318 8.1 71 15.2 101440 72
2004-07-12 15:05 51°20.03 3°0.155 12.2 29 15.2 101440 72
2004-07-12 15:06 51°19.942 2°59.824 12.5 27 15.2 101430 71
2004-07-12 15:07 51°19.848 2°59.471 12.9 25 15.2 101430 71
2004-07-12 15:08 51°19.739 2°59.123 13.8 29 15.3 101430 71
2004-07-12 15:09 51°19.641 2°58.779 11.6 20 15.3 101440 69
2004-07-12 15:10 51°19.533 2°58.414 13.3 29 15.4 101440 70
2004-07-12 15:11 51°19.434 2°58.054 13.3 18 15.3 101430 70
2004-07-12 15:12 51°19.339 2°57.691 14.3 22 15.4 101440 70
2004-07-12 15:13 51°19.246 2°57.327 13.6 29 15.4 101430 69
2004-07-12 15:14 51°19.132 2°56.976 13.2   15.5 101440 71
2004-07-12 15:15 51°18.997 2°56.644 13.2 28 15.4 101430 70
2004-07-12 15:16 51°18.852 2°56.325 13.4 31 15.4 101440 70
2004-07-12 15:17 51°18.691 2°56.026 12.1 33 15.4 101440 67
2004-07-12 15:18 51°18.54 2°55.742 12.6 34 15.4 101450 68
2004-07-12 15:19 51°18.371 2°55.436 13.2 36 15.4 101430 69
2004-07-12 15:20 51°18.215 2°55.135 12.7 32 15.3 101450 66
2004-07-12 15:21 51°18.058 2°54.838 13.4 39 15.4 101450 69
2004-07-12 15:22 51°17.898 2°54.547 12.5 40 15.4 101430 68
2004-07-12 15:23 51°17.743 2°54.249 13.3   15.4 101450 67
2004-07-12 15:24 51°17.576 2°53.972 14.2 39 15.4 101440 65
2004-07-12 15:25 51°17.414 2°53.691 12.1 40 15.4 101440 64
2004-07-12 15:26 51°17.246 2°53.42 12.7 37 15.4 101440 65
2004-07-12 15:27 51°17.048 2°53.24 9.7 58 15.4 101440 65
2004-07-12 15:28 51°16.819 2°53.241 7.7 66 15.4 101450 65
2004-07-12 15:29 51°16.593 2°53.327 7.5 68 15.4 101460 65
2004-07-12 15:30 51°16.362 2°53.414 6.8 81 15.4 101450 64
2004-07-12 15:31 51°16.139 2°53.509 6.6 71 15.5 101460 64
2004-07-12 15:32 51°15.919 2°53.613 6.5 67 15.5 101450 64
2004-07-12 15:33 51°15.702 2°53.727 5.9 49 15.5 101460 63
2004-07-12 15:34 51°15.483 2°53.845 6 74 15.5 101450 64
2004-07-12 15:35 51°15.272 2°53.982 6.9 70 15.5 101460 64
2004-07-12 15:36 51°15.068 2°54.135 4.3 73 15.5 101460 64
2004-07-12 15:37 51°14.88 2°54.328 4.5 80 15.5 101460 65
2004-07-12 15:38 51°14.702 2°54.551 4.7 93 15.6 101460 65
2004-07-12 15:39 51°14.528 2°54.761 4.1 91 15.6 101470 66
2004-07-12 15:40 51°14.386 2°55.013 2.3 74 15.6 101460 65